Temperature
17 17 17 17 16 17 17 17 17 17 17 16 16 16 16 16 16 15 15 15 15 15 15 16 16 16 16 16 16 16 16 16 16 16 16 16 16 16 16 16 16 16 15
17 17 17 16 16 16 16 16 16 16 16 16 16 16 16 16 15 15 15 15 15 15 15 15 15 15 15 16 16 16 16 16 16 16 16 16 16 16 16 16 15 15 15
17 16 16 16 16 16 16 16 16 16 16 16 16 16 15 15 15 15 15 15 15 15 15 15 15 15 15 15 15 15 15 15 15 15 15 15 15 15 15 15 15 15 15
16 16 16 16 16 16 16 16 16 16 16 16 16 15 15 15 15 15 15 15 15 15 15 15 15 15 15 15 15 15 15 15 15 15 15 14 14 14 14 14 14 14 14
16 16 16 16 16 16 16 16 16 16 15 15 15 15 15 15 15 15 15 15 15 15 15 15 14 14 14 14 14 14 14 14 14 14 14 14 13 13 13 13 13 13 13
17 17 16 16 16 16 16 16 15 15 15 15 15 15 15 15 15 15 15 15 14 14 14 14 14 14 14 14 13 13 13 13 13 13 13 12 12 12 12 12 12 12 12
17 16 16 16 16 16 15 15 15 15 15 15 15 15 14 14 14 14 14 14 14 14 13 13 13 13 13 12 12 12 12 12 12 12 11 11 11 11 10 10 10 10 10
16 16 16 16 16 15 15 15 15 15 15 14 14 14 14 14 14 14 14 13 13 13 12 12 12 12 12 11 11 11 11 11 11 10 10 10 9 9 9 9 9 9 9
16 16 16 16 16 15 15 15 14 14 14 14 13 13 13 13 13 13 13 12 12 12 11 11 11 11 11 10 10 10 10 10 9 9 9 8 8 8 8 8 8 8 8
16 16 16 15 15 15 15 14 14 13 13 13 12 12 12 12 12 11 11 11 11 11 10 10 10 10 10 9 9 9 9 9 8 8 8 7 7 7 7 7 7 6 6
16 15 15 15 14 14 14 13 13 13 12 12 11 11 11 11 10 10 10 10 10 10 10 9 9 9 8 8 8 8 7 7 7 7 7 6 6 6 6 6 5 5 5
15 15 14 14 13 13 13 12 12 12 11 11 11 10 10 10 10 9 9 9 9 9 9 8 8 7 7 7 7 6 6 6 6 6 6 5 5 5 5 5 4 4 4
14 13 13 13 12 12 12 12 11 11 11 10 10 10 9 9 9 9 9 8 8 8 7 7 7 6 6 6 6 5 5 5 5 5 5 4 4 4 4 4 4 4 4
13 12 12 12 11 11 11 11 10 10 10 9 9 9 8 8 8 8 8 8 7 7 7 6 6 6 6 5 5 5 5 4 4 4 3 3 3 3 3 3 3 3 3
12 11 11 11 11 10 10 10 10 9 9 9 9 8 8 8 7 7 7 7 6 6 6 6 5 5 5 5 4 4 4 3 3 3 2 2 2 2 2 2 1 1 1
11 10 10 10 10 10 9 9 8 8 8 8 8 7 7 7 7 6 6 6 6 5 5 5 5 4 4 3 3 3 3 2 2 2 1 1 1 1 1 1 1 1 0
10 10 10 9 9 9 9 9 8 7 7 7 7 7 7 6 6 6 5 5 5 5 5 4 4 3 3 3 2 2 2 1 1 1 1 1 0 0 0 0 0 -0 -0
10 9 9 9 9 8 8 8 8 7 7 6 6 6 6 5 5 5 5 5 4 4 4 3 3 3 2 2 2 1 1 1 1 0 0 0 -0 -0 -0 -0 -0 -1 -1
9 9 9 9 8 8 8 7 7 7 7 6 6 6 5 5 5 4 4 4 4 3 3 3 2 2 2 1 1 1 1 0 0 0 -0 -0 -0 -0 -0 -1 -1 -1 -1
9 9 8 8 8 8 7 7 7 7 6 6 6 5 5 5 4 4 3 3 3 3 2 2 2 1 1 1 1 1 0 0 -0 -0 -0 -0 -1 -1 -1 -1 -1 -1 -1
8 8 8 8 8 8 7 7 7 6 6 6 5 5 4 4 4 3 3 3 2 2 2 2 1 1 1 1 0 0 -0 -0 -0 -0 -1 -1 -1 -1 -1 -1 -1 -1 -1
8 8 8 8 8 7 7 7 6 6 5 5 4 4 4 4 3 3 3 2 2 2 2 1 1 1 1 0 0 -0 -0 -0 -1 -1 -1 -1 -1 -1 -1 -1 -1 -1 -1
8 8 8 8 7 7 7 6 6 5 5 5 4 4 4 3 3 3 2 2 2 2 1 1 1 1 0 0 -0 -0 -0 -1 -1 -1 -1 -1 -1 -1 -2 -2 -2 -2 -2
8 8 7 7 7 7 6 6 5 5 5 4 4 4 4 3 3 3 2 2 2 1 1 1 1 0 0 0 -0 -0 -1 -1 -1 -1 -1 -1 -2 -2 -2 -2 -2 -2 -2
8 7 7 7 6 6 6 5 5 5 5 4 4 4 3 3 3 3 2 2 2 1 1 1 0 0 0 -0 -0 -1 -1 -1 -1 -1 -1 -2 -2 -2 -2 -2 -2 -2 -2
7 7 7 6 6 6 6 5 5 5 4 4 4 4 3 3 3 2 2 2 1 1 1 1 0 0 -0 -0 -1 -1 -1 -1 -1 -1 -2 -2 -2 -2 -2 -2 -2 -2 -2
Wind_Speed
8 7 7 7 7 7 7 7 8 7 7 8 7 7 6 6 5 4 3 3 4 2 1 1 1 1 1 2 2 2 2 2 2 3 2 2 2 2 1 2 4 4 6
8 7 7 7 7 7 7 7 7 7 7 7 7 6 6 6 6 6 5 4 4 3 2 1 1 1 2 1 2 2 1 1 2 1 2 3 3 2 2 1 2 3 4
7 7 7 7 7 7 7 7 7 7 7 7 7 6 5 5 5 4 4 3 3 3 2 2 1 2 2 1 2 2 1 2 1 1 1 2 2 3 3 3 3 4 5
8 8 7 7 7 7 7 7 7 6 6 6 6 5 4 4 4 4 4 4 4 3 3 3 3 3 3 2 3 2 2 3 2 2 1 2 3 3 3 3 4 4 4
9 9 8 7 6 6 6 6 6 6 6 6 6 5 4 3 2 4 5 6 6 6 6 5 5 6 7 5 4 3 3 3 3 3 2 3 3 3 3 3 3 4 3
9 9 8 8 8 7 7 7 8 8 7 7 7 6 5 4 5 7 8 7 7 7 7 6 6 7 9 10 10 9 7 4 3 2 2 2 2 2 2 2 3 3 4
8 8 8 8 8 7 8 8 9 8 8 8 8 8 8 8 10 11 12 9 8 7 6 6 6 7 8 6 9 11 10 10 6 3 2 1 1 2 2 2 2 2 3
9 8 8 8 9 9 9 9 9 9 9 9 9 9 9 10 12 13 14 11 10 9 8 7 7 7 7 6 7 7 7 7 6 5 2 2 2 2 1 1 2 3 4
9 9 9 10 10 10 11 10 10 10 11 10 9 9 10 10 12 13 12 10 10 9 8 8 8 7 9 9 7 7 6 6 9 11 10 9 10 11 7 3 3 3 3
9 9 9 9 11 11 11 11 10 11 12 12 11 9 10 10 12 13 12 8 8 7 6 7 9 8 9 9 7 6 6 5 6 7 9 11 11 11 11 6 2 2 2
10 11 10 10 11 12 11 11 12 13 13 12 12 10 10 11 11 12 11 7 7 6 5 4 4 8 9 10 8 5 5 4 5 6 6 6 6 6 7 8 5 1 1
12 12 12 11 11 12 13 12 12 13 14 12 11 10 8 8 10 11 13 11 8 6 5 3 3 8 10 10 8 8 10 8 5 5 5 5 5 5 5 7 8 7 4
14 14 13 13 12 12 13 12 11 10 10 10 9 9 7 6 7 11 12 12 11 6 4 5 7 9 9 8 10 11 9 6 5 5 5 4 4 4 5 5 7 9 9
16 14 13 14 13 12 10 9 9 9 10 9 8 8 6 5 5 5 5 6 8 7 5 7 10 11 9 8 8 7 6 5 4 3 3 3 4 5 5 4 4 5 4
15 14 13 12 13 12 11 9 8 6 8 10 7 7 6 5 3 5 5 4 4 4 5 5 6 5 6 6 5 5 5 5 5 4 4 4 4 5 4 4 4 4 4
14 13 11 11 11 11 12 11 15 12 13 13 11 8 6 6 7 8 9 9 9 9 8 5 5 5 5 4 4 4 4 4 4 4 4 4 4 5 5 5 5 4 5
13 12 10 10 10 10 10 11 10 10 13 12 11 11 9 8 9 9 10 11 10 10 7 5 4 4 3 3 3 3 3 3 3 3 4 4 5 5 5 6 6 6 6
13 13 12 10 9 9 8 8 8 9 7 5 6 8 9 10 10 10 11 10 8 7 4 4 3 3 2 2 2 2 2 3 3 3 4 4 5 5 6 6 6 7 7
11 9 9 9 9 8 7 7 7 7 7 5 4 4 6 8 9 10 9 6 5 4 3 3 2 2 2 1 1 2 2 2 3 3 3 5 5 5 6 7 7 9 8
10 14 11 9 8 8 7 7 6 6 6 5 4 3 3 5 5 5 4 4 4 3 2 2 2 2 1 1 1 1 2 2 3 3 4 5 5 5 6 8 7 8 8
8 9 12 9 7 7 7 7 6 6 6 5 3 4 7 5 4 3 3 3 2 2 1 1 1 1 1 1 1 1 1 2 3 4 5 5 6 6 6 7 7 8 8
7 7 7 8 7 7 7 7 7 6 6 6 4 4 8 5 4 3 2 1 1 1 2 1 1 1 1 1 1 1 1 2 4 5 6 6 6 7 7 7 8 8 9
8 8 8 8 8 10 9 7 7 6 6 5 5 4 4 3 3 2 2 1 0 0 1 1 1 1 1 2 2 1 1 3 4 5 5 6 7 7 7 8 10 10 10
8 9 9 8 8 8 8 7 6 6 6 5 5 4 3 3 3 2 2 1 1 1 1 2 2 3 3 2 1 1 3 5 7 8 8 6 7 7 7 8 9 10 10
7 8 8 7 7 7 7 6 6 5 5 5 4 4 3 3 3 2 1 1 1 1 1 2 3 2 2 2 1 3 5 8 9 10 10 8 7 8 8 9 9 10 10
7 7 7 6 6 6 7 6 5 5 4 4 3 3 3 3 3 2 1 1 1 0 0 2 2 2 2 2 2 4 6 9 11 12 11 8 6 7 8 8 10 9 10
Wind_Direction
159 157 155 160 160 157 161 164 161 159 156 160 163 163 164 164 158 155 166 158 165 175 171 156 194 153 97 69 76 84 95 137 188 281 293 326 14 5 17 239 253 262 267
157 152 152 152 151 151 154 156 151 149 157 162 159 163 170 171 169 171 186 180 178 186 197 170 209 136 93 70 78 74 72 121 157 256 321 348 359 350 1 3 3 346 319
150 149 149 148 149 150 153 152 152 151 151 151 149 156 162 164 169 175 180 182 176 175 175 160 163 123 104 81 77 69 49 53 87 122 345 358 3 12 14 4 10 3 350
153 151 153 154 155 154 152 149 149 145 141 136 130 129 131 132 146 159 148 139 128 111 98 96 89 104 111 100 79 59 62 56 52 68 36 13 10 2 31 8 351 345 339
157 159 160 156 151 147 147 143 137 130 126 117 110 102 96 98 119 136 132 125 116 101 85 76 74 82 81 80 82 70 70 65 54 55 41 27 13 14 5 349 341 326 323
160 163 162 155 152 153 146 132 119 111 106 103 101 97 82 73 87 105 112 108 106 103 94 78 68 63 70 68 69 66 69 74 69 60 44 38 349 333 335 349 349 354 324
161 159 157 155 153 148 140 126 118 114 107 99 93 88 79 65 78 92 99 102 98 94 92 85 76 60 54 59 59 56 51 51 61 92 71 334 298 284 315 330 331 308 282
158 158 152 145 138 129 123 120 116 111 107 101 94 88 82 70 76 88 95 92 88 82 81 83 80 59 53 62 67 58 46 37 39 47 43 331 331 310 269 263 285 305 297
154 151 149 145 138 130 126 123 117 112 104 97 92 87 84 73 72 82 93 94 90 80 76 76 78 70 56 63 68 60 43 23 31 36 40 36 32 32 37 41 17 13 332
143 138 134 133 130 127 125 119 113 110 107 101 89 82 83 77 74 81 87 97 95 87 74 66 66 67 58 60 67 63 48 13 12 23 29 28 33 34 36 42 35 16 327
123 117 114 115 116 117 114 113 113 110 105 100 91 80 74 72 70 74 81 93 103 97 83 61 44 53 57 59 65 66 52 39 30 34 32 26 22 22 20 20 24 45 358
111 108 105 105 109 110 109 108 110 112 109 105 97 84 69 64 67 68 70 76 87 94 84 57 43 56 60 57 58 51 48 49 45 39 34 20 13 4 352 355 359 355 332
106 102 100 96 97 104 109 111 109 109 111 109 102 95 79 62 58 63 68 71 72 79 76 71 68 65 60 55 53 52 50 49 44 40 28 7 346 338 346 349 350 350 341
108 104 100 98 94 88 90 97 105 109 113 112 109 105 94 71 55 50 54 58 58 60 59 62 63 62 61 54 47 45 46 49 52 39 9 348 348 357 358 350 344 342 341
104 101 99 98 98 90 80 72 87 88 117 122 121 121 115 95 66 72 78 63 58 69 74 63 56 54 53 45 40 35 33 33 33 19 14 3 356 354 342 338 339 343 338
109 108 106 104 102 102 100 83 60 75 86 97 107 110 92 101 98 75 68 72 80 87 82 73 68 67 66 56 47 32 26 25 19 15 11 0 350 343 335 333 336 334 325
113 115 114 113 112 110 109 109 100 70 65 76 88 94 97 91 76 69 70 74 75 82 80 77 76 73 69 61 51 38 16 2 9 17 10 356 347 341 337 332 331 328 322
108 113 115 115 116 115 114 116 119 120 108 74 62 76 80 73 66 68 74 73 62 58 76 83 82 80 76 64 41 26 15 9 14 11 2 351 345 338 332 327 322 319 318
107 111 114 118 120 121 121 119 116 115 112 105 79 52 60 67 65 68 75 79 79 67 61 66 76 85 80 67 42 31 34 19 4 353 343 334 329 327 322 318 316 315 315
107 117 119 120 121 123 123 122 118 114 111 108 104 97 78 81 78 65 66 79 84 84 82 78 76 92 93 68 46 45 35 7 347 337 323 318 315 314 311 310 312 312 309
105 113 114 115 122 128 129 128 125 120 118 117 114 117 119 108 109 102 95 94 104 116 124 116 104 101 66 70 88 74 28 337 324 318 314 311 311 311 308 305 305 304 305
104 104 106 108 109 112 117 120 119 119 123 121 112 99 106 104 108 107 108 119 140 161 157 158 165 186 178 174 164 144 336 320 315 314 310 307 308 308 308 307 307 308 308
103 103 101 100 103 108 108 111 117 119 118 119 120 116 113 114 121 128 129 138 143 105 103 117 127 121 114 123 129 140 264 293 292 297 303 306 308 307 307 306 307 309 310
104 107 107 105 105 108 112 114 116 120 122 124 125 129 134 137 139 145 148 148 114 75 64 95 123 138 131 131 133 323 313 312 312 307 302 296 300 302 304 305 306 306 307
105 109 111 113 115 115 117 118 119 122 125 131 134 137 141 142 143 152 166 150 112 80 58 110 132 143 158 174 253 305 321 327 327 324 315 300 293 297 300 303 307 311 310
107 109 112 115 117 120 123 125 128 131 134 138 139 143 149 153 157 163 169 155 149 151 145 156 156 173 195 224 279 306 320 327 331 333 327 310 298 303 311 311 312 315 313
Height
1493 1496 1499 1502 1506 1509 1513 1516 1520 1524 1527 1530 1532 1535 1537 1539 1541 1542 1544 1546 1547 1549 1550 1551 1552 1553 1554 1554 1555 1555 1555 1556 1556 1556 1556 1556 1555 1555 1555 1556 1556 1556 1555
1493 1496 1499 1502 1505 1508 1511 1515 1518 1522 1525 1528 1531 1533 1535 1537 1539 1541 1542 1544 1546 1547 1548 1549 1550 1551 1552 1552 1553 1553 1553 1553 1553 1553 1553 1553 1553 1553 1553 1553 1552 1552 1551
1493 1496 1499 1502 1504 1507 1511 1514 1517 1521 1524 1527 1529 1531 1533 1535 1537 1539 1540 1542 1543 1545 1546 1547 1548 1549 1549 1550 1550 1550 1550 1550 1550 1550 1550 1550 1549 1549 1549 1549 1548 1548 1547
1493 1496 1499 1501 1504 1507 1511 1513 1517 1520 1523 1525 1527 1530 1532 1534 1535 1537 1538 1540 1541 1543 1544 1545 1546 1546 1547 1547 1547 1547 1547 1547 1547 1547 1547 1546 1546 1545 1545 1544 1544 1543 1542
1493 1496 1499 1502 1505 1508 1510 1513 1516 1519 1522 1524 1526 1528 1530 1531 1533 1535 1536 1538 1539 1541 1542 1543 1543 1544 1544 1544 1544 1544 1544 1544 1544 1543 1543 1542 1542 1541 1540 1539 1538 1537 1537
1493 1496 1498 1501 1504 1507 1510 1512 1515 1518 1520 1522 1524 1526 1528 1530 1531 1533 1535 1536 1537 1538 1539 1540 1541 1541 1541 1541 1541 1541 1541 1541 1540 1540 1539 1538 1538 1537 1536 1535 1534 1532 1531
1493 1495 1498 1501 1504 1507 1509 1512 1514 1516 1519 1521 1523 1525 1527 1528 1530 1531 1533 1534 1535 1536 1537 1538 1538 1539 1539 1539 1538 1538 1538 1537 1537 1537 1536 1535 1534 1533 1532 1531 1530 1528 1527
1492 1494 1497 1500 1502 1505 1508 1510 1513 1516 1518 1520 1522 1524 1526 1527 1529 1530 1531 1532 1533 1534 1536 1536 1537 1537 1537 1537 1536 1536 1535 1535 1534 1533 1533 1531 1531 1529 1528 1527 1526 1524 1523
1490 1493 1496 1498 1501 1503 1506 1509 1512 1514 1517 1519 1521 1523 1525 1526 1528 1529 1530 1531 1532 1533 1534 1535 1535 1535 1535 1535 1535 1534 1533 1533 1532 1531 1530 1529 1528 1526 1525 1524 1522 1520 1518
1488 1491 1494 1497 1499 1502 1505 1508 1511 1513 1515 1517 1520 1522 1524 1525 1527 1529 1530 1530 1531 1532 1533 1534 1534 1534 1534 1533 1533 1532 1531 1531 1530 1529 1528 1527 1525 1524 1522 1521 1519 1517 1515
1487 1490 1493 1496 1499 1502 1504 1507 1510 1512 1514 1517 1519 1521 1523 1525 1527 1529 1530 1531 1531 1532 1533 1533 1533 1533 1532 1532 1531 1531 1530 1530 1528 1527 1526 1525 1523 1522 1520 1519 1517 1515 1513
1486 1489 1492 1495 1498 1501 1504 1507 1510 1512 1514 1517 1520 1522 1525 1526 1528 1529 1530 1531 1532 1532 1532 1533 1532 1532 1532 1531 1531 1530 1530 1529 1528 1526 1525 1523 1521 1520 1518 1516 1514 1513 1511
1485 1489 1492 1495 1499 1502 1505 1508 1511 1513 1516 1518 1521 1523 1525 1528 1529 1530 1531 1532 1532 1532 1532 1533 1533 1532 1532 1531 1530 1530 1529 1527 1526 1524 1523 1521 1520 1518 1515 1513 1511 1509 1507
1486 1489 1493 1496 1500 1503 1506 1509 1512 1515 1518 1520 1523 1525 1527 1529 1530 1531 1532 1532 1532 1533 1533 1533 1533 1532 1532 1531 1530 1529 1528 1526 1525 1523 1521 1520 1518 1515 1513 1510 1507 1504 1501
1488 1492 1496 1499 1502 1505 1508 1512 1515 1518 1520 1522 1525 1527 1528 1530 1531 1532 1532 1533 1533 1533 1533 1533 1533 1533 1532 1531 1530 1528 1527 1525 1524 1522 1520 1518 1515 1513 1510 1507 1504 1501 1498
1492 1495 1498 1502 1505 1508 1511 1514 1518 1521 1524 1526 1527 1529 1530 1532 1532 1533 1533 1534 1534 1534 1534 1534 1533 1532 1532 1531 1530 1528 1527 1525 1523 1521 1519 1516 1513 1510 1507 1504 1501 1498 1494
1496 1499 1502 1505 1509 1512 1515 1516 1519 1523 1526 1528 1530 1531 1532 1533 1534 1535 1535 1535 1535 1535 1534 1534 1534 1533 1532 1531 1530 1528 1526 1524 1522 1520 1517 1514 1511 1508 1504 1501 1498 1494 1491
1501 1504 1506 1510 1513 1516 1519 1521 1523 1525 1528 1530 1532 1534 1535 1535 1536 1536 1536 1536 1536 1535 1535 1534 1534 1533 1532 1531 1529 1527 1525 1523 1521 1518 1515 1512 1508 1505 1501 1498 1494 1491 1488
1506 1509 1512 1515 1517 1520 1523 1525 1527 1529 1531 1532 1534 1535 1537 1537 1537 1537 1537 1537 1536 1536 1535 1535 1534 1533 1532 1530 1528 1527 1524 1522 1519 1516 1513 1509 1506 1502 1498 1494 1491 1488 1485
1511 1514 1516 1518 1521 1524 1526 1528 1530 1532 1533 1534 1536 1537 1538 1538 1538 1538 1538 1537 1537 1536 1536 1535 1534 1532 1531 1530 1528 1526 1523 1520 1517 1514 1510 1507 1503 1499 1495 1491 1488 1485 1482
1515 1518 1520 1522 1524 1526 1528 1530 1532 1534 1535 1536 1537 1538 1539 1539 1539 1539 1538 1538 1537 1536 1535 1534 1533 1532 1530 1529 1527 1524 1521 1518 1515 1511 1507 1504 1500 1496 1492 1488 1485 1482 1479
1519 1521 1523 1525 1527 1529 1531 1532 1534 1535 1536 1538 1539 1539 1540 1540 1539 1539 1538 1538 1537 1536 1535 1534 1532 1531 1529 1527 1525 1522 1519 1516 1512 1508 1505 1501 1497 1493 1489 1486 1482 1479 1476
1522 1524 1526 1528 1529 1531 1532 1534 1536 1537 1538 1539 1539 1540 1540 1540 1540 1539 1538 1538 1537 1536 1534 1533 1531 1529 1528 1525 1523 1520 1517 1513 1510 1506 1501 1497 1494 1490 1486 1483 1479 1476 1473
1525 1527 1528 1530 1531 1533 1534 1536 1537 1538 1539 1540 1540 1540 1540 1540 1540 1539 1538 1537 1536 1535 1533 1532 1530 1528 1526 1523 1521 1518 1515 1511 1507 1503 1499 1494 1491 1487 1483 1480 1476 1473 1470
1528 1529 1531 1532 1533 1535 1536 1537 1538 1539 1540 1540 1540 1540 1540 1540 1539 1538 1538 1536 1535 1534 1532 1530 1528 1526 1524 1521 1518 1515 1512 1508 1504 1500 1496 1492 1488 1484 1481 1477 1473 1470 1467
1530 1531 1533 1534 1535 1536 1537 1538 1539 1540 1540 1540 1540 1540 1540 1539 1538 1538 1537 1535 1534 1532 1530 1528 1526 1524 1521 1519 1516 1512 1509 1505 1501 1497 1493 1489 1485 1481 1478 1474 1471 1467 1464